Location: Baili�vre
(50.0696°N, 4.2409°E)
Time: 17:19:34
(UTC+00:00)

Cosmos 1933 Rocket - Pass Details

Date: 08 August 2020
Orbit: 606 x 631 km, 82.5° (Epoch: 25 September)

Event Time Altitude Azimuth Distance (km) Brightness Sun altitude
Exits shadow 22:01:19 22° 218° (SW) 1,371 5.1 -20.0°
Maximum altitude 22:03:56 50° 284° (WNW) 802 4.3 -20.2°
Drops below altitude 10° 22:08:17 10° 1° (N) 2,012 7.1 -20.5°
Sets 22:10:36 0° 7° (N) 2,928 8.0 -20.7°
